[[{"header":{"parameterUnit":"m.s-1","parameterCategory":1,"la1":30.2991,"la2":30.254,"lo1":-89.0895,"lo2":-89.0444,"dy":0.0017,"dx":0.0017,"nx":28,"ny":28,"refTime":"2023-09-23T03:00:00:Z","depth":0,"parameterNumber":2,"parameterNumberName":"U-component_of_WINDS"},"data":[0,0,0,0,0,0,0,0,0,0,0,0,0,0,0,0,0,0,0,0,0,0,0,0,0,0,0,0,0,0,0,0,0,0,0,0,0,0,0,0,0,0,0,0,0,0,0,0,0,0,0,0,0,0,0,0,0,0,-1.0799,-1.0799,0,-1.0829,-1.0829,-1.083,-1.0807,-1.0806,-1.0805,-1.0804,-1.0832,-1.0834,-1.0836,0,0,0,0,0,0,0,0,0,0,0,0,0,-1.072,-1.0722,-1.0799,-1.08,-1.08,-1.0829,-1.0829,-1.083,-1.0807,-1.0806,-1.0804,-1.0803,-1.0832,-1.0834,-1.0836,0,0,0,0,0,0,0,0,0,0,0,0,0,-1.0753,-1.0723,-1.0799,-1.0792,-1.0792,-1.0829,-1.0829,-1.083,-1.0807,-1.0806,-1.0804,-1.0803,-1.0831,-1.0833,-1.0836,-1.0881,0,0,-1.0844,-1.0845,0,0,0,0,0,0,0,0,-1.0751,-1.0756,-1.0793,-1.0793,-1.0792,-1.0813,-1.0812,-1.0847,-1.0807,-1.0801,-1.0804,-1.0802,-1.0827,-1.083,-1.0838,-1.0882,-1.0884,-1.0844,-1.0845,-1.0846,-1.0847,0,0,0,0,0,0,0,-1.0749,-1.0754,-1.0811,-1.0793,-1.0793,-1.0787,-1.079,-1.0819,-1.0822,-1.0802,-1.08,-1.0804,-1.0826,-1.0836,-1.0839,-1.0884,-1.0844,-1.0846,-1.0848,-1.0849,-1.0966,-1.0968,0,0,0,0,0,0,-1.0748,-1.0753,-1.081,-1.0812,-1.0768,-1.0789,-1.0793,-1.0808,-1.0821,-1.0822,-1.0805,-1.0803,-1.0832,-1.0836,-1.084,-1.0893,-1.0846,-1.0849,-1.085,-1.0964,-1.0966,-1.0968,0,0,0,0,0,0,-1.0746,-1.0753,-1.0809,-1.0782,-1.0788,-1.0792,-1.0809,-1.0809,-1.0818,-1.0824,-1.0824,-1.0814,-1.0831,-1.0836,-1.0871,-1.0894,-1.085,-1.0852,-1.0963,-1.0965,-1.0967,-1.1,0,0,0,0,0,0,-1.0744,-1.0752,-1.077,-1.0782,-1.079,-1.084,-1.0811,-1.0811,-1.0823,-1.082,-1.0833,-1.0834,-1.0831,-1.0867,-1.0873,-1.0896,-1.0854,-1.096,-1.0964,-1.0966,-1.0997,-1.1003,-1.1009,0,0,0,0,0,-1.0741,-1.0778,-1.0771,-1.0778,-1.0812,-1.0841,-1.0846,-1.0842,-1.0825,-1.0842,-1.0846,-1.0833,-1.089,-1.0871,-1.0878,-1.0902,-1.0959,-1.0963,-1.0966,-1.0994,-1.1002,-1.1008,0,0,0,0,0,0,-1.0767,-1.0779,-1.0772,-1.0814,-1.0827,-1.0838,-1.0859,-1.085,-1.0868,-1.0864,-1.0858,-1.0862,-1.0898,-1.0903,-1.0882,-1.0946,-1.0922,-1.0927,-1.0941,-1.0948,-1.0954,-1.0951,-1.0856,0,0,0,0,0,-1.0778,-1.0801,-1.081,-1.0846,-1.0854,-1.0856,-1.0868,-1.0864,-1.0877,-1.0882,-1.0888,-1.0901,-1.0922,-1.0935,-1.0955,-1.0998,-1.1,-1.1018,-1.1023,-1.1028,-1.1032,-1.1055,-1.1063,-1.098,-1.098,-1.098,0,0,-1.08,-1.081,-1.0825,-1.0852,-1.0862,-1.0885,-1.086,-1.0886,-1.0904,-1.0886,-1.0919,-1.0924,-1.0938,-1.0977,-1.0994,-1.0982,-1.1056,-1.1033,-1.1037,-1.1038,-1.1059,-1.1067,-1.1074,-1.0982,-1.0982,-1.0982,0,0,-1.0852,-1.0863,-1.0893,-1.0904,-1.0919,-1.092,-1.0928,-1.094,-1.0943,-1.0976,-1.0963,-1.0984,-1.102,-1.103,-1.1039,-1.1096,-1.1084,-1.1102,-1.1133,-1.1155,-1.1161,-1.1167,-1.1186,-1.1193,-1.1107,-1.1107,-1.1107,0,-1.0878,-1.0914,-1.091,-1.0937,-1.095,-1.0936,-1.0966,-1.0976,-1.0997,-1.1005,-1.0992,-1.1037,-1.1045,-1.1086,-1.11,-1.1108,-1.1116,-1.11,-1.1161,-1.1166,-1.1172,-1.119,-1.1197,-1.1109,-1.1109,-1.1108,-1.1108,0,-1.0944,-1.0969,-1.0992,-1.1013,-1.1028,-1.1056,-1.1057,-1.1072,-1.1067,-1.1069,-1.1103,-1.1113,-1.1134,-1.1143,-1.1138,-1.1183,-1.1175,-1.1162,-1.1137,-1.1182,-1.1199,-1.1206,-1.1112,-1.1111,-1.111,-1.111,0,0,-1.1012,-1.1032,-1.104,-1.1049,-1.1065,-1.1084,-1.1112,-1.1133,-1.1146,-1.1161,-1.1184,-1.1215,-1.1202,-1.1213,-1.1209,-1.1229,-1.1272,-1.1213,-1.1213,-1.1223,-1.1322,-1.1331,-1.1339,-1.1265,-1.1267,-1.1268,-1.132,0,-1.1065,-1.1114,-1.1112,-1.1158,-1.1181,-1.1168,-1.1193,-1.1205,-1.1208,-1.1227,-1.123,-1.1252,-1.1234,-1.1241,-1.126,-1.1263,-1.1292,-1.1259,-1.1285,-1.1286,-1.1281,-1.1348,-1.1359,-1.1408,-1.1327,-1.1328,-1.1329,0,-1.1132,-1.115,-1.1199,-1.1211,-1.122,-1.1243,-1.1262,-1.1281,-1.1294,-1.1295,-1.1307,-1.1301,-1.1328,-1.1304,-1.1342,-1.132,-1.133,-1.1334,-1.1335,-1.1337,-1.131,-1.1351,-1.1423,-1.143,-1.134,-1.1339,-1.1338,0,-1.1176,-1.1212,-1.1246,-1.1254,-1.127,-1.1286,-1.1293,-1.1305,-1.1318,-1.1334,-1.1342,-1.1362,-1.1372,-1.1387,-1.1385,-1.1368,-1.1423,-1.1399,-1.1424,-1.1424,-1.1435,-1.1434,-1.1509,-1.1444,-1.1444,-1.1444,-1.1443,0,-1.1234,-1.1264,-1.1266,-1.1286,-1.1319,-1.1317,-1.1349,-1.1354,-1.1365,-1.1386,-1.1377,-1.1396,-1.1393,-1.1413,-1.1412,-1.1442,-1.1447,-1.1448,-1.1447,-1.1448,-1.1448,-1.1454,-1.145,-1.1446,-1.1445,-1.1445,-1.1444,0,-1.1288,-1.1291,-1.1326,-1.1339,-1.1343,-1.1366,-1.1377,-1.1396,-1.1398,-1.1425,-1.1431,-1.1435,-1.1457,-1.1457,-1.1483,-1.1482,-1.1519,-1.1515,-1.1515,-1.1514,-1.1538,-1.1535,-1.1619,-1.1629,-1.1558,-1.1559,-1.1559,0,-1.1325,-1.1347,-1.1363,-1.1376,-1.1385,-1.1407,-1.142,-1.1418,-1.1432,-1.1449,-1.1466,-1.1488,-1.1505,-1.1541,-1.1546,-1.1565,-1.1561,-1.1589,-1.1563,-1.1564,-1.156,-1.1558,-1.156,-1.1593,-1.1594,-1.1595,-1.1595,0,-1.1388,-1.1389,-1.1408,-1.1429,-1.1445,-1.1461,-1.1476,-1.1487,-1.1487,-1.1503,-1.1526,-1.154,-1.1566,-1.1588,-1.1607,-1.1613,-1.1604,-1.1603,-1.161,-1.1611,-1.1609,-1.1609,-1.1527,-1.1601,-1.1601,-1.16,-1.16,-1.16,-1.1434,-1.1453,-1.1467,-1.1489,-1.1501,-1.1515,-1.1533,-1.1538,-1.1558,-1.158,-1.1578,-1.1603,-1.1616,-1.164,-1.1649,-1.1668,-1.1658,-1.1668,-1.167,-1.1672,-1.1675,-1.1607,-1.1672,-1.1672,-1.1671,-1.1671,-1.1671,0,-1.1496,-1.1505,-1.1525,-1.1546,-1.1564,-1.1555,-1.1571,-1.1586,-1.1609,-1.1622,-1.1639,-1.1666,-1.1687,-1.1693,-1.1713,-1.1728,-1.1724,-1.1733,-1.1731,-1.1733,-1.1683,-1.1675,-1.1736,-1.1736,-1.1735,-1.1735,-1.1735,-1.1735,-1.153,-1.1563,-1.1565,-1.1603,-1.1611,-1.1636,-1.1646,-1.1659,-1.1669,-1.1699,-1.1717,-1.1722,-1.1732,-1.1753,-1.1771,-1.1772,-1.178,-1.179,-1.179,-1.1743,-1.1736,-1.173,-1.1722,-1.1792,-1.1792,-1.1838,-1.1838,-1.1838]},{"header":{"parameterUnit":"m.s-1","parameterCategory":1,"la1":30.2991,"la2":30.254,"lo1":-89.0895,"lo2":-89.0444,"dy":0.0017,"dx":0.0017,"nx":28,"ny":28,"refTime":"2023-09-23T03:00:00:Z","depth":0,"parameterNumber":3,"parameterNumberName":"V-component_of_WINDS"},"data":[0,0,0,0,0,0,0,0,0,0,0,0,0,0,0,0,0,0,0,0,0,0,0,0,0,0,0,0,0,0,0,0,0,0,0,0,0,0,0,0,0,0,0,0,0,0,0,0,0,0,0,0,0,0,0,0,0,0,-2.6128,-2.6128,0,-2.6127,-2.6127,-2.6127,-2.6077,-2.6075,-2.6074,-2.6073,-2.6072,-2.6073,-2.6074,0,0,0,0,0,0,0,0,0,0,0,0,0,-2.6085,-2.6086,-2.6128,-2.6128,-2.6128,-2.6127,-2.6127,-2.6127,-2.6077,-2.6075,-2.6074,-2.6072,-2.6071,-2.6073,-2.6074,0,0,0,0,0,0,0,0,0,0,0,0,0,-2.6096,-2.6086,-2.6128,-2.6103,-2.6101,-2.6127,-2.6127,-2.6127,-2.6077,-2.6075,-2.6073,-2.6072,-2.6071,-2.6072,-2.6074,-2.6124,0,0,-2.608,-2.608,0,0,0,0,0,0,0,0,-2.6095,-2.6097,-2.6107,-2.6105,-2.6102,-2.61,-2.6111,-2.6126,-2.6078,-2.6086,-2.6073,-2.6071,-2.6083,-2.6083,-2.6087,-2.6124,-2.6124,-2.608,-2.6081,-2.6082,-2.6082,0,0,0,0,0,0,0,-2.6094,-2.6097,-2.6127,-2.6107,-2.6104,-2.6091,-2.609,-2.6114,-2.6095,-2.6085,-2.6082,-2.6082,-2.6081,-2.6086,-2.6087,-2.6124,-2.608,-2.6081,-2.6082,-2.6083,-2.6199,-2.6201,0,0,0,0,0,0,-2.6097,-2.6097,-2.6127,-2.6127,-2.6094,-2.6093,-2.6093,-2.6103,-2.6095,-2.6092,-2.6084,-2.608,-2.6084,-2.6085,-2.6087,-2.6143,-2.6082,-2.6083,-2.6084,-2.6197,-2.62,-2.6202,0,0,0,0,0,0,-2.6097,-2.6101,-2.6127,-2.6111,-2.6113,-2.6096,-2.6108,-2.6104,-2.6108,-2.6094,-2.609,-2.6092,-2.6082,-2.6084,-2.6115,-2.6143,-2.6084,-2.6086,-2.6195,-2.6198,-2.6201,-2.6258,0,0,0,0,0,0,-2.6096,-2.6101,-2.612,-2.6112,-2.6115,-2.6156,-2.6109,-2.6105,-2.6111,-2.6106,-2.6101,-2.6098,-2.6081,-2.6112,-2.6116,-2.6144,-2.6087,-2.6192,-2.6196,-2.62,-2.6254,-2.6263,-2.6271,0,0,0,0,0,-2.6094,-2.6137,-2.6121,-2.6125,-2.6139,-2.6158,-2.6159,-2.6139,-2.6114,-2.6133,-2.6123,-2.6098,-2.6139,-2.6116,-2.612,-2.6149,-2.619,-2.6195,-2.62,-2.625,-2.6261,-2.627,0,0,0,0,0,0,-2.6149,-2.6135,-2.6118,-2.6159,-2.616,-2.615,-2.6173,-2.6152,-2.616,-2.6155,-2.6129,-2.6128,-2.6162,-2.6158,-2.6133,-2.6195,-2.616,-2.6166,-2.6197,-2.6207,-2.6216,-2.6216,-2.6088,0,0,0,0,0,-2.6166,-2.6183,-2.617,-2.6207,-2.6209,-2.6191,-2.6199,-2.6182,-2.6182,-2.6183,-2.6175,-2.6176,-2.6188,-2.6198,-2.6209,-2.6253,-2.625,-2.6274,-2.6283,-2.629,-2.6295,-2.6316,-2.6327,-2.6217,-2.6217,-2.6217,0,0,-2.6201,-2.6195,-2.6208,-2.6218,-2.6217,-2.6235,-2.6192,-2.6213,-2.6225,-2.6186,-2.6214,-2.6208,-2.6207,-2.6244,-2.626,-2.6242,-2.6324,-2.6295,-2.6301,-2.6302,-2.6322,-2.6332,-2.6342,-2.622,-2.622,-2.6219,0,0,-2.6274,-2.6272,-2.6302,-2.6301,-2.63,-2.6287,-2.6294,-2.6287,-2.6281,-2.6309,-2.6279,-2.6294,-2.6317,-2.6316,-2.632,-2.639,-2.6367,-2.6394,-2.6438,-2.646,-2.6468,-2.6476,-2.65,-2.6509,-2.6399,-2.6399,-2.64,0,-2.6318,-2.6344,-2.632,-2.6343,-2.6347,-2.6312,-2.6341,-2.6342,-2.6344,-2.6348,-2.6327,-2.6354,-2.6351,-2.6387,-2.6404,-2.6408,-2.6414,-2.6395,-2.6469,-2.6476,-2.6483,-2.6506,-2.6515,-2.6403,-2.6402,-2.6402,-2.6402,0,-2.6397,-2.6415,-2.644,-2.6442,-2.6449,-2.6476,-2.6455,-2.6465,-2.6448,-2.6437,-2.6465,-2.646,-2.6468,-2.6476,-2.6459,-2.6509,-2.6498,-2.6474,-2.6437,-2.6497,-2.6518,-2.6527,-2.6408,-2.6406,-2.6405,-2.6405,0,0,-2.6506,-2.6493,-2.6503,-2.6503,-2.6497,-2.6511,-2.6534,-2.6542,-2.6551,-2.6553,-2.6572,-2.6591,-2.6568,-2.6572,-2.6555,-2.6574,-2.6628,-2.6547,-2.6546,-2.6562,-2.6681,-2.67,-2.671,-2.6613,-2.6614,-2.6616,-2.6681,0,-2.6576,-2.6616,-2.6595,-2.6637,-2.6653,-2.6618,-2.6638,-2.6637,-2.6627,-2.6639,-2.6627,-2.6641,-2.661,-2.6612,-2.6629,-2.6618,-2.6652,-2.6613,-2.6629,-2.663,-2.6631,-2.6721,-2.6741,-2.6803,-2.6689,-2.6691,-2.6692,0,-2.6664,-2.6669,-2.6713,-2.6702,-2.6708,-2.6727,-2.6732,-2.6743,-2.674,-2.6731,-2.6734,-2.6712,-2.6734,-2.6698,-2.6727,-2.6701,-2.6706,-2.6702,-2.6704,-2.6705,-2.6665,-2.6724,-2.6823,-2.6832,-2.6705,-2.6704,-2.6703,0,-2.6738,-2.6756,-2.6784,-2.6785,-2.6774,-2.6788,-2.6784,-2.6778,-2.6784,-2.6788,-2.6791,-2.6798,-2.6801,-2.6806,-2.6786,-2.6762,-2.6818,-2.678,-2.6811,-2.6811,-2.6825,-2.6824,-2.6925,-2.6828,-2.6828,-2.6828,-2.6828,0,-2.6819,-2.6847,-2.6817,-2.6834,-2.6864,-2.6838,-2.6869,-2.6861,-2.6856,-2.6871,-2.6841,-2.6856,-2.6828,-2.684,-2.6824,-2.685,-2.6852,-2.6845,-2.6841,-2.6848,-2.6849,-2.6851,-2.6846,-2.683,-2.683,-2.6829,-2.6829,0,-2.6907,-2.6888,-2.6917,-2.6903,-2.69,-2.6923,-2.6911,-2.6926,-2.6913,-2.6932,-2.6935,-2.6916,-2.6927,-2.6907,-2.6917,-2.6906,-2.6942,-2.6931,-2.6943,-2.694,-2.6972,-2.6969,-2.7078,-2.7091,-2.6986,-2.6987,-2.6987,0,-2.696,-2.6981,-2.6969,-2.6976,-2.6974,-2.6986,-2.6991,-2.6966,-2.6972,-2.6969,-2.6985,-2.6994,-2.7,-2.702,-2.7006,-2.7013,-2.7002,-2.7039,-2.7003,-2.7009,-2.7002,-2.7001,-2.7002,-2.7047,-2.7048,-2.7049,-2.705,0,-2.7056,-2.7045,-2.7053,-2.7058,-2.7064,-2.7067,-2.7067,-2.7075,-2.7048,-2.7057,-2.7068,-2.7072,-2.7081,-2.709,-2.7093,-2.7089,-2.7065,-2.7062,-2.7069,-2.7077,-2.7083,-2.708,-2.6964,-2.706,-2.7059,-2.7058,-2.7057,-2.7057,-2.7128,-2.7144,-2.7137,-2.7147,-2.7144,-2.7145,-2.7158,-2.7146,-2.7155,-2.716,-2.7144,-2.7159,-2.7153,-2.7155,-2.7153,-2.7163,-2.7147,-2.7158,-2.716,-2.7163,-2.7168,-2.7081,-2.7164,-2.7164,-2.7163,-2.7163,-2.7163,0,-2.7221,-2.7215,-2.7224,-2.7225,-2.7232,-2.7208,-2.7206,-2.7214,-2.7227,-2.7224,-2.723,-2.7242,-2.725,-2.7237,-2.7242,-2.7254,-2.7243,-2.7256,-2.7255,-2.7254,-2.7183,-2.7176,-2.7265,-2.7264,-2.7264,-2.7264,-2.7264,-2.7264,-2.7271,-2.7296,-2.7284,-2.7307,-2.7301,-2.7314,-2.7315,-2.7315,-2.7312,-2.7327,-2.7333,-2.7324,-2.7316,-2.7321,-2.7327,-2.7323,-2.7326,-2.7343,-2.7335,-2.7269,-2.7259,-2.725,-2.7243,-2.7344,-2.7344,-2.7405,-2.7406,-2.7406]}]]